{"data":{"norad_id":43484,"intl_designator":"2018-048A","name":"GAOFEN-6","alt_names":[],"object_type":"PAYLOAD","status":"ACTIVE","operator":null,"country":"PRC","launch_date":"2018-06-02","launch_site_code":"JSC","launch_vehicle":null,"mission":null,"orbit_class":"UNKNOWN","rcs_meters":null,"size_class":null,"mass_kg":null,"dimensions":null,"purposes":["earth_obs"],"wikipedia_slug":null,"has_3d_model":false,"image_url":null,"decayed_at":null,"tle_current":{"epoch":"2026-09-20T05:21:47.697408Z","epoch_age_seconds":42241,"freshness":"FRESH","line1":"1 43484U 18048A   26263.22346872  .00000617  00000+0  96139-4 0  9992","line2":"2 43484  98.0875 326.0519 0009627 220.1968 139.8531 14.76445283447414","mean_motion":14.76445283,"eccentricity":0.0009627,"inclination_deg":98.0875,"raan_deg":326.0519,"arg_perigee_deg":220.1968,"mean_anomaly_deg":139.8531,"bstar":9.6139e-5,"rev_number":44741,"period_min":97.531552071747,"perigee_km":633.81024857779,"apogee_km":647.32406155796,"semimajor_km":7018.7041550679,"source":"CELESTRAK","updated_at":"2026-09-20T09:00:33.973295Z"}}}